| time (UTC) | temp F | wind direction | speed knots | gust knots | rain 1hr in | rain 24hr in | rain mn in | humidity % | barometer mb |
| 20260507040014 | 59 | 106 | 0.0 | 1.7 | 0.00 | 0.00 | 0.00 | 81 | 1016.9 |
| 20260507034534 | 59 | 106 | 0.0 | 2.6 | 0.00 | 0.00 | 0.00 | 81 | 1016.6 |
| 20260507033033 | 59 | 107 | 0.9 | 2.6 | 0.00 | 0.00 | 0.00 | 80 | 1016.4 |
| 20260507031513 | 60 | 118 | 0.0 | 2.6 | 0.00 | 0.00 | 0.00 | 78 | 1016.3 |
| 20260507030019 | 61 | 147 | 0.0 | 1.7 | 0.00 | 0.00 | 0.00 | 77 | 1016.1 |
| 20260507024545 | 62 | 146 | 0.9 | 2.6 | 0.00 | 0.00 | 0.00 | 76 | 1016.0 |
| 20260507023028 | 63 | 144 | 1.7 | 3.5 | 0.00 | 0.00 | 0.00 | 74 | 1015.8 |
| 20260507021544 | 64 | 145 | 1.7 | 3.5 | 0.00 | 0.00 | 0.00 | 72 | 1015.7 |
| 20260507020024 | 65 | 160 | 2.6 | 4.3 | 0.00 | 0.00 | 0.00 | 70 | 1015.5 |
| 20260507014534 | 66 | 143 | 1.7 | 4.3 | 0.00 | 0.00 | 0.00 | 68 | 1015.5 |
| 20260507013030 | 66 | 144 | 2.6 | 5.2 | 0.00 | 0.00 | 0.00 | 67 | 1015.6 |
| 20260507011559 | 66 | 191 | 2.6 | 5.2 | 0.00 | 0.00 | 0.00 | 65 | 1015.6 |
| 20260507010114 | 67 | 185 | 3.5 | 5.2 | 0.00 | 0.00 | 0.00 | 65 | 1015.8 |
| 20260507004518 | 67 | 206 | 2.6 | 6.1 | 0.00 | 0.00 | 0.00 | 64 | 1015.7 |
| 20260507003026 | 67 | 168 | 3.5 | 7.8 | 0.00 | 0.00 | 0.00 | 63 | 1015.6 |
| 20260507001528 | 67 | 161 | 4.3 | 7.0 | 0.00 | 0.00 | 0.00 | 63 | 1015.6 |
| 20260507000014 | 68 | 149 | 5.2 | 9.6 | 0.00 | 0.00 | 0.00 | 63 | 1015.7 |
| 20260506234526 | 68 | 147 | 4.3 | 8.7 | 0.00 | 0.00 | 0.00 | 63 | 1015.5 |
| 20260506233011 | 68 | 110 | 3.5 | 7.0 | 0.00 | 0.00 | 0.00 | 64 | 1015.6 |
| 20260506231522 | 68 | 143 | 6.1 | 10.4 | 0.00 | 0.00 | 0.00 | 62 | 1015.8 |
| 20260506230028 | 70 | 131 | 6.1 | 10.4 | 0.00 | 0.00 | 0.00 | 60 | 1015.7 |
| 20260506224526 | 70 | 127 | 3.5 | 8.7 | 0.00 | 0.00 | 0.00 | 60 | 1015.8 |
| 20260506223029 | 70 | 189 | 4.3 | 8.7 | 0.00 | 0.00 | 0.00 | 60 | 1016.2 |
| 20260506221518 | 70 | 177 | 6.1 | 10.4 | 0.00 | 0.00 | 0.00 | 59 | 1016.4 |
| 20260506220024 | 71 | 164 | 4.3 | 10.4 | 0.00 | 0.00 | 0.00 | 59 | 1016.4 |
| 20260506214532 | 71 | 149 | 5.2 | 9.6 | 0.00 | 0.00 | 0.00 | 59 | 1016.8 |
| 20260506213020 | 70 | 110 | 2.6 | 7.0 | 0.00 | 0.00 | 0.00 | 61 | 1016.9 |
| 20260506211528 | 69 | 233 | 1.7 | 13.0 | 0.00 | 0.00 | 0.00 | 64 | 1017.1 |
| 20260506210031 | 70 | 204 | 5.2 | 8.7 | 0.00 | 0.00 | 0.00 | 63 | 1017.1 |
| 20260506204524 | 70 | 190 | 0.9 | 7.8 | 0.00 | 0.00 | 0.00 | 65 | 1017.2 |
| 20260506203026 | 69 | 175 | 3.5 | 12.2 | 0.00 | 0.00 | 0.00 | 66 | 1017.3 |
| 20260506201528 | 69 | 169 | 5.2 | 10.4 | 0.00 | 0.00 | 0.00 | 65 | 1017.7 |
| 20260506200017 | 68 | 179 | 6.1 | 10.4 | 0.00 | 0.00 | 0.00 | 66 | 1017.5 |
| 20260506194530 | 68 | 134 | 7.0 | 13.0 | 0.00 | 0.00 | 0.00 | 66 | 1017.6 |
| 20260506193031 | 68 | 141 | 7.0 | 13.0 | 0.00 | 0.00 | 0.00 | 66 | 1017.6 |
| 20260506191516 | 68 | 160 | 6.1 | 11.3 | 0.00 | 0.00 | 0.00 | 66 | 1017.8 |
| 20260506190019 | 68 | 150 | 7.0 | 10.4 | 0.00 | 0.00 | 0.00 | 65 | 1017.9 |
| 20260506184623 | 68 | 146 | 6.1 | 11.3 | 0.00 | 0.00 | 0.00 | 62 | 1018.0 |
| 20260506183017 | 68 | 94 | 6.1 | 10.4 | 0.00 | 0.00 | 0.00 | 60 | 1018.0 |
| 20260506181520 | 67 | 139 | 7.8 | 12.2 | 0.00 | 0.00 | 0.00 | 61 | 1018.2 |
| 20260506180031 | 67 | 141 | 2.6 | 8.7 | 0.00 | 0.00 | 0.00 | 61 | 1018.3 |
| 20260506174533 | 66 | 86 | 0.9 | 8.7 | 0.00 | 0.00 | 0.00 | 62 | 1018.2 |
| 20260506173019 | 65 | 101 | 1.7 | 8.7 | 0.00 | 0.00 | 0.00 | 62 | 1018.3 |
| 20260506171523 | 65 | 118 | 2.6 | 6.1 | 0.00 | 0.00 | 0.00 | 62 | 1018.2 |
| 20260506170028 | 64 | 91 | 0.0 | 6.1 | 0.00 | 0.00 | 0.00 | 64 | 1018.2 |
| 20260506164515 | 63 | 127 | 1.7 | 6.1 | 0.00 | 0.00 | 0.00 | 65 | 1018.2 |
| 20260506163023 | 62 | 108 | 2.6 | 7.0 | 0.00 | 0.00 | 0.00 | 66 | 1018.4 |
| 20260506161530 | 61 | 147 | 1.7 | 4.3 | 0.00 | 0.00 | 0.00 | 69 | 1018.5 |
| 20260506160018 | 60 | 102 | 1.7 | 3.5 | 0.00 | 0.00 | 0.00 | 71 | 1018.3 |
| 20260506154504 | 58 | 99 | 1.7 | 3.5 | 0.00 | 0.00 | 0.00 | 75 | 1018.3 |
| 20260506153029 | 56 | 85 | 1.7 | 3.5 | 0.00 | 0.00 | 0.00 | 79 | 1018.4 |
| 20260506151520 | 55 | 77 | 0.9 | 2.6 | 0.00 | 0.00 | 0.00 | 82 | 1018.4 |
| 20260506150004 | 53 | 75 | 0.9 | 2.6 | 0.00 | 0.00 | 0.00 | 86 | 1018.2 |
| 20260506144536 | 52 | 50 | 0.9 | 1.7 | 0.00 | 0.00 | 0.00 | 91 | 1018.1 |
| 20260506143023 | 50 | 324 | 0.0 | 1.7 | 0.00 | 0.00 | 0.00 | 93 | 1018.0 |
| 20260506141527 | 48 | 322 | 0.9 | 2.6 | 0.00 | 0.00 | 0.00 | 92 | 1017.9 |
| 20260506140117 | 48 | 324 | 0.9 | 2.6 | 0.00 | 0.00 | 0.00 | 92 | 1017.8 |
| 20260506134515 | 47 | 325 | 0.0 | 2.6 | 0.00 | 0.00 | 0.00 | 92 | 1017.7 |
| 20260506133022 | 47 | 326 | 0.0 | 1.7 | 0.00 | 0.00 | 0.00 | 92 | 1017.7 |
| 20260506131541 | 47 | 326 | 0.0 | 1.7 | 0.00 | 0.00 | 0.00 | 92 | 1017.6 |
| 20260506130036 | 47 | 327 | 0.0 | 0.9 | 0.00 | 0.00 | 0.00 | 92 | 1017.5 |
| 20260506124517 | 47 | 324 | 1.7 | 2.6 | 0.00 | 0.00 | 0.00 | 92 | 1017.5 |
| 20260506123037 | 47 | 316 | 0.9 | 2.6 | 0.00 | 0.00 | 0.00 | 92 | 1017.4 |
| 20260506121513 | 47 | 314 | 0.0 | 2.6 | 0.00 | 0.00 | 0.00 | 92 | 1017.3 |
| 20260506120024 | 47 | 314 | 0.0 | 1.7 | 0.00 | 0.00 | 0.00 | 92 | 1017.2 |
| 20260506114525 | 47 | 314 | 0.9 | 1.7 | 0.00 | 0.00 | 0.00 | 92 | 1017.2 |
| 20260506113034 | 47 | 314 | 0.9 | 2.6 | 0.00 | 0.00 | 0.00 | 92 | 1017.2 |
| 20260506111534 | 47 | 314 | 0.0 | 0.0 | 0.00 | 0.00 | 0.00 | 92 | 1017.0 |
| 20260506110020 | 48 | 314 | 0.9 | 1.7 | 0.00 | 0.00 | 0.00 | 92 | 1017.1 |
| 20260506104530 | 48 | 314 | 1.7 | 2.6 | 0.00 | 0.00 | 0.00 | 92 | 1017.1 |
| 20260506103032 | 48 | 314 | 1.7 | 2.6 | 0.00 | 0.00 | 0.00 | 92 | 1017.0 |
| 20260506101526 | 48 | 314 | 1.7 | 3.5 | 0.00 | 0.00 | 0.00 | 92 | 1017.0 |
| 20260506100027 | 48 | 316 | 0.9 | 2.6 | 0.00 | 0.00 | 0.00 | 92 | 1017.0 |
| 20260506094534 | 48 | 318 | 1.7 | 3.5 | 0.00 | 0.00 | 0.00 | 92 | 1017.2 |
| 20260506093031 | 48 | 318 | 0.9 | 3.5 | 0.00 | 0.00 | 0.00 | 92 | 1017.2 |
| 20260506091530 | 48 | 320 | 0.9 | 3.5 | 0.00 | 0.00 | 0.00 | 92 | 1017.4 |
| 20260506090015 | 49 | 324 | 1.7 | 3.5 | 0.00 | 0.00 | 0.00 | 92 | 1017.6 |
| 20260506084523 | 49 | 4 | 1.7 | 3.5 | 0.00 | 0.00 | 0.00 | 92 | 1017.3 |
| 20260506083031 | 49 | 4 | 0.9 | 3.5 | 0.00 | 0.00 | 0.00 | 92 | 1017.6 |
| 20260506081529 | 49 | 22 | 0.9 | 2.6 | 0.00 | 0.00 | 0.00 | 91 | 1017.5 |
| 20260506073032 | 49 | 4 | 0.0 | 1.7 | 0.00 | 0.00 | 0.00 | 91 | 1017.4 |
| 20260506071522 | 50 | 4 | 0.0 | 2.6 | 0.00 | 0.00 | 0.00 | 91 | 1017.3 |
| 20260506061528 | 51 | 9 | 1.7 | 3.5 | 0.00 | 0.00 | 0.00 | 90 | 1016.7 |
| 20260506044531 | 53 | 109 | 0.0 | 1.7 | 0.00 | 0.00 | 0.00 | 88 | 1016.0 |
| 20260506043026 | 53 | 109 | 0.0 | 2.6 | 0.00 | 0.00 | 0.00 | 88 | 1015.8 |
| 20260506041517 | 53 | 109 | 0.0 | 2.6 | 0.00 | 0.00 | 0.00 | 88 | 1015.7 |